Location: New Mesquite
(33.1168°N, 96.4336°W)
Time: 06:49:23
(UTC+00:00)

Cosmos 1538 Rocket - Pass Details

Date: 07 July 2022
Orbit: 752 x 791 km, 74.0° (Epoch: 11 August)

Event Time Altitude Azimuth Distance (km) Brightness Sun altitude
Exits shadow 09:19:56 - 151° (SSE) 2,552 6.5 -21.2°
Reaches altitude 10° 09:20:47 10° 146° (SE) 2,300 6.3 -21.1°
Maximum altitude 09:24:38 21° 98° (E) 1,655 6.1 -20.6°
Drops below altitude 10° 09:28:28 10° 50° (NE) 2,292 7.7 -20.0°
Sets 09:31:19 0° 35° (NE) 3,216 8.8 -19.6°
